Location: Newark
(44.4156°N, 12.1972°E)
Time: 10:14:19
(UTC+00:00)

STARLINK-1107 - Pass Details

Date: 04 February 2020
Orbit: 345 x 354 km, 53.0° (Epoch: 18 February)

Event Time Altitude Azimuth Distance (km) Brightness Sun altitude
Rises 17:11:54 0° 291° (WNW) 2,169 7.7 -9.0°
Reaches altitude 10° 17:14:23 10° 269° (W) 1,322 7.1 -9.4°
Maximum altitude 17:16:20 16° 227° (SW) 1,012 5.9 -9.8°
Drops below altitude 10° 17:18:17 10° 185° (S) 1,315 5.8 -10.1°
Sets 17:20:45 0° 163° (SSE) 2,152 6.6 -10.5°
